sat.trackr.live / text

‹ back to catalog

ION SCV-015

NORAD 58469 · 2023-185H

PAYLOAD ACTIVE UNKNOWN

§ Identity

Operator
Country
IT
Launch date
2023-12-01
Launch site
AFWTR
Launch vehicle
Mass (kg)
RCS (m²)

External: N2YO · Heavens-Above · Gunter

§ Orbital elements

Epoch: 2026-05-25T05:18:10.190592Z

Period
93.95 min
Inclination
97.5754°
Eccentricity
0.0009594
Mean motion
15.32680143 rev/d
Perigee alt
461.3 km
Apogee alt
474.4 km
Semi-major
6,846.0 km
B*
2.1146e-4
RAAN
233.3958°
Arg perigee
171.3150°
Mean anomaly
188.8259°
Rev number
13,756

§ Raw data

ION SCV-0151 58469U 23185H   26145.22095128  .00006600  00000+0  21146-3 0  99962 58469  97.5754 233.3958 0009594 171.3150 188.8259 15.32680143137565

JSON: /api/v1/satellites/58469 · /tle

For live sub-satellite position, see the globe view (requires WebGL).

§ Visibility from observer

Set your observer location to see the next 7 days of passes ≥ 10°. The values pass through the URL so the page stays shareable.

No JS? Fill the form by hand. The geolocation button needs JavaScript.

§ Radio — SatNOGS DB

ModeDescriptionDownlinkUplink
FSK AX.100 Mode 5 Mode U - FSK1k2 AX.100 401.415 MHz
FM S-band telemetry 2.258 GHz

2 transmitters · refreshed weekly from db.satnogs.org